TimeCST,TemperatureF,Dew PointF,Humidity,Sea Level PressureIn,VisibilityMPH,Wind Direction,Wind SpeedMPH,Gust SpeedMPH,PrecipitationIn,Events,Conditions,WindDirDegrees,DateUTC
12:15 AM,30.2,26.6,86,30.34,10.0,Calm,Calm,-,N/A,,Clear,0,2012-12-13 06:15:00
12:35 AM,28.4,26.6,93,30.33,10.0,SE,3.5,-,N/A,,Clear,130,2012-12-13 06:35:00
12:55 AM,28.4,24.8,86,30.33,10.0,Calm,Calm,-,N/A,,Clear,0,2012-12-13 06:55:00
1:15 AM,28.4,26.6,93,30.34,10.0,Calm,Calm,-,N/A,,Clear,0,2012-12-13 07:15:00
1:35 AM,28.4,24.8,86,30.36,10.0,Calm,Calm,-,N/A,,Clear,0,2012-12-13 07:35:00
1:55 AM,26.6,24.8,93,30.36,10.0,Calm,Calm,-,N/A,,Clear,0,2012-12-13 07:55:00
2:15 AM,26.6,24.8,93,30.37,10.0,Calm,Calm,-,N/A,,Clear,0,2012-12-13 08:15:00
2:35 AM,26.6,24.8,93,30.36,10.0,Calm,Calm,-,N/A,,Clear,0,2012-12-13 08:35:00
2:55 AM,26.6,26.6,100,30.36,10.0,Calm,Calm,-,N/A,,Clear,0,2012-12-13 08:55:00
3:15 AM,26.6,26.6,100,30.36,10.0,Calm,Calm,-,N/A,,Clear,0,2012-12-13 09:15:00
3:35 AM,26.6,26.6,100,30.36,10.0,Calm,Calm,-,N/A,,Clear,0,2012-12-13 09:35:00
3:55 AM,26.6,26.6,100,30.36,10.0,Calm,Calm,-,N/A,,Clear,0,2012-12-13 09:55:00
4:15 AM,26.6,26.6,100,30.36,10.0,Calm,Calm,-,N/A,,Clear,0,2012-12-13 10:15:00
4:35 AM,24.8,24.8,100,30.36,7.0,Calm,Calm,-,N/A,,Clear,0,2012-12-13 10:35:00
4:55 AM,26.6,26.6,100,30.37,10.0,SE,3.5,-,N/A,,Clear,140,2012-12-13 10:55:00
5:15 AM,26.6,26.6,100,30.37,10.0,Calm,Calm,-,N/A,,Clear,0,2012-12-13 11:15:00
5:35 AM,24.8,24.8,100,30.37,10.0,SE,3.5,-,N/A,,Clear,130,2012-12-13 11:35:00
5:55 AM,26.6,24.8,93,30.37,10.0,SE,3.5,-,N/A,,Clear,130,2012-12-13 11:55:00
6:15 AM,26.6,26.6,100,30.37,10.0,SE,3.5,-,N/A,,Clear,140,2012-12-13 12:15:00
6:35 AM,28.4,26.6,93,30.36,10.0,SE,4.6,-,N/A,,Clear,140,2012-12-13 12:35:00
6:55 AM,28.4,26.6,93,30.37,10.0,SE,4.6,-,N/A,,Clear,140,2012-12-13 12:55:00
7:15 AM,28.4,26.6,93,30.37,10.0,SE,5.8,-,N/A,,Clear,140,2012-12-13 13:15:00
7:35 AM,30.2,26.6,86,30.38,10.0,SE,4.6,-,N/A,,Clear,140,2012-12-13 13:35:00
7:55 AM,33.8,28.4,81,30.37,10.0,SSE,4.6,-,N/A,,Clear,150,2012-12-13 13:55:00
8:15 AM,35.6,28.4,75,30.37,10.0,SSE,3.5,-,N/A,,Clear,160,2012-12-13 14:15:00
5:15 PM,42.8,26.6,53,30.24,10.0,SSE,5.8,-,N/A,,Clear,150,2012-12-13 23:15:00
5:35 PM,42.8,28.4,57,30.24,10.0,SSE,6.9,-,N/A,,Clear,150,2012-12-13 23:35:00
6:35 PM,41.0,26.6,57,30.24,10.0,SSE,5.8,-,N/A,,Clear,160,2012-12-14 00:35:00
6:55 PM,41.0,26.6,57,30.24,10.0,SSE,5.8,-,N/A,,Clear,160,2012-12-14 00:55:00
7:15 PM,39.2,26.6,61,30.24,10.0,SSE,5.8,-,N/A,,Clear,160,2012-12-14 01:15:00
7:35 PM,39.2,26.6,61,30.24,10.0,South,5.8,-,N/A,,Clear,170,2012-12-14 01:35:00
7:55 PM,39.2,26.6,61,30.23,10.0,South,4.6,-,N/A,,Clear,170,2012-12-14 01:55:00
8:15 PM,39.2,26.6,61,30.23,10.0,South,5.8,-,N/A,,Clear,170,2012-12-14 02:15:00
8:35 PM,39.2,26.6,61,30.23,10.0,South,4.6,-,N/A,,Clear,170,2012-12-14 02:35:00
8:55 PM,39.2,26.6,61,30.23,10.0,South,4.6,-,N/A,,Clear,170,2012-12-14 02:55:00
9:15 PM,39.2,26.6,61,30.23,10.0,South,4.6,-,N/A,,Clear,170,2012-12-14 03:15:00
9:35 PM,39.2,26.6,61,30.23,10.0,South,5.8,-,N/A,,Clear,170,2012-12-14 03:35:00
9:55 PM,39.2,26.6,61,30.24,10.0,South,4.6,-,N/A,,Clear,170,2012-12-14 03:55:00
10:15 PM,37.4,26.6,65,30.23,10.0,South,5.8,-,N/A,,Clear,170,2012-12-14 04:15:00
10:35 PM,39.2,26.6,61,30.23,10.0,SSE,4.6,-,N/A,,Clear,160,2012-12-14 04:35:00
10:55 PM,39.2,26.6,61,30.23,10.0,SSE,4.6,-,N/A,,Clear,160,2012-12-14 04:55:00
11:15 PM,37.4,26.6,65,30.23,10.0,SSE,4.6,-,N/A,,Clear,160,2012-12-14 05:15:00
11:35 PM,37.4,24.8,60,30.23,10.0,South,4.6,-,N/A,,Clear,170,2012-12-14 05:35:00
11:55 PM,37.4,26.6,65,30.23,10.0,South,4.6,-,N/A,,Clear,170,2012-12-14 05:55:00